TimeMST,TemperatureF,Dew PointF,Humidity,Sea Level PressureIn,VisibilityMPH,Wind Direction,Wind SpeedMPH,Gust SpeedMPH,PrecipitationIn,Events,Conditions,WindDirDegrees,DateUTC
12:53 AM,-5.1,-8.0,87,30.53,10.0,Calm,Calm,-,N/A,,Clear,0,2014-02-26 07:53:00
1:53 AM,-8.0,-11.0,86,30.54,10.0,NE,3.5,-,N/A,,Clear,50,2014-02-26 08:53:00
2:53 AM,-4.0,-9.0,79,30.54,10.0,Calm,Calm,-,N/A,,Clear,0,2014-02-26 09:53:00
3:53 AM,-9.9,-14.1,82,30.56,7.0,North,3.5,-,N/A,,Clear,350,2014-02-26 10:53:00
4:53 AM,-9.0,-13.0,83,30.56,10.0,Calm,Calm,-,N/A,,Clear,0,2014-02-26 11:53:00
5:53 AM,-9.0,-15.0,75,30.58,10.0,Calm,Calm,-,N/A,,Clear,0,2014-02-26 12:53:00
6:53 AM,-9.9,-14.1,82,30.58,2.5,Calm,Calm,-,N/A,,Partly Cloudy,0,2014-02-26 13:53:00
7:00 AM,-9.4,-16.6,71,30.25,10.0,Calm,Calm,-,N/A,,Clear,0,2014-02-26 14:00:00
7:53 AM,-11.0,-15.0,83,30.60,10.0,Calm,Calm,-,N/A,,Clear,0,2014-02-26 14:53:00
8:53 AM,-9.0,-13.0,83,30.60,10.0,Calm,Calm,-,N/A,,Clear,0,2014-02-26 15:53:00
9:53 AM,-9.0,-11.9,87,30.58,10.0,Calm,Calm,-,0.00,,Clear,0,2014-02-26 16:53:00
10:53 AM,-0.0,-8.0,69,30.55,10.0,Calm,Calm,-,N/A,,Clear,0,2014-02-26 17:53:00
11:53 AM,1.9,-7.1,66,30.51,10.0,Calm,Calm,-,N/A,,Clear,0,2014-02-26 18:53:00
12:53 PM,3.0,-5.1,69,30.48,10.0,Calm,Calm,-,N/A,,Clear,0,2014-02-26 19:53:00
1:53 PM,10.0,-2.9,56,30.42,10.0,Calm,Calm,-,N/A,,Clear,0,2014-02-26 20:53:00
2:53 PM,10.0,-2.0,58,30.38,10.0,North,3.5,-,N/A,,Clear,360,2014-02-26 21:53:00
3:53 PM,10.0,-0.9,61,30.36,10.0,NE,3.5,-,N/A,,Clear,40,2014-02-26 22:53:00
4:53 PM,8.1,-0.9,67,30.35,10.0,Calm,Calm,-,N/A,,Clear,0,2014-02-26 23:53:00
5:53 PM,8.1,-0.9,67,30.33,10.0,Calm,Calm,-,N/A,,Clear,0,2014-02-27 00:53:00
6:53 PM,6.1,-0.9,73,30.32,10.0,Calm,Calm,-,N/A,,Clear,0,2014-02-27 01:53:00
7:53 PM,3.0,-0.9,84,30.31,10.0,Calm,Calm,-,N/A,,Clear,0,2014-02-27 02:53:00
8:53 PM,3.0,-2.0,80,30.29,10.0,Calm,Calm,-,N/A,,Scattered Clouds,0,2014-02-27 03:53:00
9:53 PM,1.9,-2.0,83,30.28,9.0,Calm,Calm,-,N/A,,Clear,0,2014-02-27 04:53:00
10:53 PM,3.9,-0.9,80,30.23,10.0,Calm,Calm,-,N/A,,Clear,0,2014-02-27 05:53:00
11:53 PM,1.0,-2.9,83,30.22,7.0,WSW,3.5,-,N/A,,Overcast,250,2014-02-27 06:53:00